Le nostre stazioni meteo in Italia

Pubblicità
Il mio iltempo24.it
Ustica, Italia (16400): Temperatura & dewpoint: 15.09.2018 05:00:00 - 21.09.2018 05:00:00 (CEST)Ustica, Italia (16400): velocità del vento: 15.09.2018 05:00:00 - 21.09.2018 05:00:00 (CEST)Ustica, Italia (16400): direzione del vento: 15.09.2018 05:00:00 - 21.09.2018 05:00:00 (CEST)Ustica, Italia (16400): reduced air pressure: 15.09.2018 05:00:00 - 21.09.2018 05:00:00 (CEST)Ustica, Italia (16400): visibility: 15.09.2018 05:00:00 - 21.09.2018 05:00:00 (CEST)Ustica, Italia (16400): ore di luce: 15.09.2018 05:00:00 - 21.09.2018 05:00:00 (CEST)
Data & Tempo tt [°C] td [°C] ff [km/h] ff [kn] dd ppp [hPa] vv [km] sd [min]
21.09.2018 05:00:00 - - - - - - - -
21.09.2018 04:00:00 - - - - - - - -
21.09.2018 03:00:00 - - - - - - - -
21.09.2018 02:00:00 - - - - - - - -
21.09.2018 01:00:00 - - - - - - - -
21.09.2018 00:00:00 - - - - - - - -
20.09.2018 23:00:00 - - - - - - - -
20.09.2018 22:00:00 - - - - - - - -
20.09.2018 21:00:00 - - - - - - - -
20.09.2018 20:00:00 - - - - - - - -
20.09.2018 19:00:00 - - - - - - - -
20.09.2018 18:00:00 25,0 23,9 16 9 SSO 1015,7 18 12
20.09.2018 17:00:00 25,4 24,3 24 13 SSO 1015,7 18 12
20.09.2018 16:00:00 26,0 26,0 16 9 OSO 1015,9 18 12
20.09.2018 15:00:00 26,0 26,0 18 10 OSO 1016,6 18 18
20.09.2018 14:00:00 26,0 26,0 18 10 OSO 1017,1 18 12
20.09.2018 13:00:00 24,4 22,2 18 10 OSO 1017,4 18 36
20.09.2018 12:00:00 24,4 21,6 22 12 OSO 1017,7 10 36
20.09.2018 11:00:00 24,0 21,2 16 9 O 1017,8 18 24
20.09.2018 10:00:00 24,0 22,1 21 11 S 1017,3 18 12
20.09.2018 09:00:00 23,6 21,9 22 12 S 1017,3 18 24
20.09.2018 08:00:00 23,0 22,7 18 10 S 1016,9 18 0
20.09.2018 07:00:00 - - - - - - - -
20.09.2018 06:00:00 - - - - - - - -
20.09.2018 05:00:00 - - - - - - - -
20.09.2018 04:00:00 - - - - - - - -
20.09.2018 03:00:00 - - - - - - - -
20.09.2018 02:00:00 - - - - - - - -
20.09.2018 01:00:00 - - - - - - - -
20.09.2018 00:00:00 - - - - - - - -
19.09.2018 23:00:00 - - - - - - - -
19.09.2018 22:00:00 - - - - - - - -
19.09.2018 21:00:00 - - - - - - - -
19.09.2018 20:00:00 22,6 22,3 18 10 SSE 1018,0 18 0
19.09.2018 19:00:00 23,0 22,7 8 4 SE 1018,4 18 18
19.09.2018 18:00:00 25,0 24,5 11 6 SE 1018,1 18 36
19.09.2018 17:00:00 25,6 23,7 15 8 SE 1017,7 18 0
19.09.2018 16:00:00 26,4 24,0 24 13 SSE 1018,5 18 12
19.09.2018 15:00:00 26,6 23,3 22 12 SSE 1018,7 20 30
19.09.2018 14:00:00 26,8 23,8 22 12 SSE 1019,0 20 48
19.09.2018 13:00:00 26,4 24,0 24 13 SSE 1018,9 20 36
19.09.2018 12:00:00 26,0 23,0 21 11 SSE 1019,4 20 48
19.09.2018 11:00:00 25,4 22,4 22 12 SSE 1019,3 20 48
19.09.2018 10:00:00 25,2 23,6 22 12 SSE 1019,5 20 48
19.09.2018 09:00:00 25,0 24,2 15 8 SE 1018,7 20 36
19.09.2018 08:00:00 25,0 25,0 18 10 SE 1018,1 20 0
19.09.2018 07:00:00 - - - - - - - -
19.09.2018 06:00:00 - - - - - - - -
19.09.2018 05:00:00 - - - - - - - -
19.09.2018 04:00:00 - - - - - - - -
19.09.2018 03:00:00 - - - - - - - -
19.09.2018 02:00:00 - - - - - - - -
19.09.2018 01:00:00 - - - - - - - -
19.09.2018 00:00:00 - - - - - - - -
18.09.2018 23:00:00 - - - - - - - -
18.09.2018 22:00:00 - - - - - - - -
18.09.2018 21:00:00 - - - - - - - -
18.09.2018 20:00:00 25,0 25,0 4 2 N 1020,0 20 0
18.09.2018 19:00:00 25,4 25,1 5 3 N 1019,0 20 12
18.09.2018 18:00:00 25,4 25,1 8 4 N 1019,2 20 36
18.09.2018 17:00:00 25,8 25,5 5 3 NO 1019,7 20 30
18.09.2018 16:00:00 25,8 23,9 8 4 N 1019,9 20 0
18.09.2018 15:00:00 25,6 23,7 8 4 N 1020,2 20 12
18.09.2018 14:00:00 25,0 23,4 5 3 NO 1020,7 20 18
18.09.2018 13:00:00 25,2 24,4 5 3 NO 1020,9 20 0
18.09.2018 12:00:00 25,2 24,4 5 3 NO 1021,2 20 12
18.09.2018 11:00:00 25,2 24,1 5 3 NO 1020,8 20 18
18.09.2018 10:00:00 25,2 24,1 5 3 ONO 1020,9 20 18
18.09.2018 09:00:00 25,0 25,0 0 0 N 1020,6 20 12
18.09.2018 08:00:00 24,6 24,6 0 0 N 1019,9 20 -
18.09.2018 07:00:00 - - - - - - - -
18.09.2018 06:00:00 - - - - - - - -
18.09.2018 05:00:00 - - - - - - - -
18.09.2018 04:00:00 - - - - - - - -
18.09.2018 03:00:00 - - - - - - - -
18.09.2018 02:00:00 - - - - - - - -
18.09.2018 01:00:00 - - - - - - - -
18.09.2018 00:00:00 - - - - - - - -
17.09.2018 23:00:00 - - - - - - - -
17.09.2018 22:00:00 - - - - - - - -
17.09.2018 21:00:00 - - - - - - - -
17.09.2018 20:00:00 25,2 25,2 0 0 N 1020,4 20 0
17.09.2018 19:00:00 25,0 24,7 5 3 E 1019,9 20 54
17.09.2018 18:00:00 25,6 24,0 9 5 E 1020,7 20 60
17.09.2018 17:00:00 25,6 23,4 5 3 E 1020,9 20 60
17.09.2018 16:00:00 24,4 21,6 9 5 E 1021,4 20 60
17.09.2018 15:00:00 25,4 23,7 8 4 E 1021,9 20 60
17.09.2018 14:00:00 26,0 24,2 13 7 E 1022,1 20 60
17.09.2018 13:00:00 25,8 24,0 8 4 E 1022,7 20 60
17.09.2018 12:00:00 25,4 24,4 24 13 E 1022,8 20 60
17.09.2018 11:00:00 25,0 22,5 21 11 E 1022,3 20 60
17.09.2018 10:00:00 23,2 23,2 13 7 E 1022,2 20 60
17.09.2018 09:00:00 23,4 23,4 15 8 E 1022,1 20 48
17.09.2018 08:00:00 23,0 23,0 16 9 E 1021,5 15 0
17.09.2018 07:00:00 - - - - - - - -
17.09.2018 06:00:00 - - - - - - - -
17.09.2018 05:00:00 - - - - - - - -
17.09.2018 04:00:00 - - - - - - - -
17.09.2018 03:00:00 - - - - - - - -
17.09.2018 02:00:00 - - - - - - - -
17.09.2018 01:00:00 - - - - - - - -
17.09.2018 00:00:00 - - - - - - - -
16.09.2018 23:00:00 - - - - - - - -
16.09.2018 22:00:00 - - - - - - - -
16.09.2018 21:00:00 - - - - - - - -
16.09.2018 20:00:00 25,0 24,0 9 5 E 1021,4 20 0
16.09.2018 19:00:00 25,0 23,3 8 4 NE 1021,0 20 0
16.09.2018 18:00:00 25,2 23,3 15 8 NE 1021,6 20 0
16.09.2018 17:00:00 25,4 22,7 4 2 NE 1021,8 20 0
16.09.2018 16:00:00 25,2 22,7 11 6 ENE 1022,0 20 24
16.09.2018 15:00:00 25,0 22,9 13 7 SSE 1022,2 20 60
16.09.2018 14:00:00 25,0 22,9 13 7 NNE 1022,2 20 60
16.09.2018 13:00:00 25,2 22,9 8 4 SE 1023,1 20 60
16.09.2018 12:00:00 24,8 22,1 15 8 SE 1023,3 20 60
16.09.2018 11:00:00 24,8 23,0 16 9 ESE 1023,2 20 60
16.09.2018 10:00:00 24,2 22,5 0 0 N 1023,2 20 60
16.09.2018 09:00:00 24,2 22,5 0 0 N 1022,6 20 60
16.09.2018 08:00:00 - - - - - - - -
16.09.2018 07:00:00 - - - - - - - -
16.09.2018 06:00:00 - - - - - - - -
16.09.2018 05:00:00 - - - - - - - -
16.09.2018 04:00:00 - - - - - - - -
16.09.2018 03:00:00 - - - - - - - -
16.09.2018 02:00:00 - - - - - - - -
16.09.2018 01:00:00 - - - - - - - -
16.09.2018 00:00:00 - - - - - - - -
15.09.2018 23:00:00 - - - - - - - -
15.09.2018 22:00:00 - - - - - - - -
15.09.2018 21:00:00 - - - - - - - -
15.09.2018 20:00:00 26,0 25,0 5 3 N 1020,8 20 0
15.09.2018 19:00:00 - - - - - - - -
15.09.2018 18:00:00 27,0 24,8 0 0 N 1020,8 25 60
15.09.2018 17:00:00 27,0 24,1 4 2 ONO 1020,7 20 60
15.09.2018 16:00:00 27,0 23,7 0 0 N 1020,8 20 48
15.09.2018 15:00:00 27,0 23,2 0 0 N 1020,9 20 0
15.09.2018 14:00:00 27,0 23,0 0 0 N 1021,0 30 18
15.09.2018 13:00:00 26,4 22,7 11 6 ONO 1021,0 30 60
15.09.2018 12:00:00 26,0 22,1 2 1 ONO 1021,1 30 60
15.09.2018 11:00:00 25,0 21,5 11 6 ONO 1020,8 25 60
15.09.2018 10:00:00 24,8 21,5 8 4 ONO 1020,2 20 60
15.09.2018 09:00:00 24,0 21,7 8 4 N 1020,2 20 36
15.09.2018 08:00:00 24,0 24,0 8 4 NNE 1020,0 20 0
15.09.2018 07:00:00 - - - - - - - -
15.09.2018 06:00:00 - - - - - - - -
15.09.2018 05:00:00 - - - - - - - -

tt = Temperatura
td = dewpoint
ff = velocità del vento
dd = direzione del vento
ppp = reduced air pressure
vv = visibility
sd = ore di luce

Stazioni seguenti

WeatherPro
AMSI
MeteoEarth